Volver al catálogo

SL-8 R/B

ActivoPO
NORAD 13354·ROCKET BODY·🇷🇺 Russia

Lanzado Jul 7, 1982 desde Plesetsk Cosmodrome

Loading…

Próximos Pases (próximas 24 horas)

TLE

ActualizadoSource: Space-Track

Época: Sep 14, 2026, 05:19 UTC

1 13354U 82069B   26257.22184198  .00000049  00000-0  32944-4 0  9997
2 13354  82.9640 349.2174 0051782   7.1325 353.0558 13.79289867222687

Sigue SL-8 R/B en tiempo real con AllMySat

Download on the App Store